NIMIQ 4

Last updated on Thu Oct 30 2025 00:02:48 GMT+0000 (Coordinated Universal Time)

1 33373U 08044A 25302.46023670 -.00000210 00000+0 00000+0 0 9997 2 33373 0.0268 271.4946 0001905 314.3708 255.8800 1.00268799 62672
UTC large
Height (km)
Speed (km/s)
/
Latitude / Longitude
Inclination (degrees)
Orbital Period (minutes)
Azimuth
Elevation
Range (km)
Doppler Factor

Next 0 passes for location: London (51.5072 / 0.1276)

Sorry there are no passes over London.